TimePDT,TemperatureF,Dew PointF,Humidity,Sea Level PressureIn,VisibilityMPH,Wind Direction,Wind SpeedMPH,Gust SpeedMPH,PrecipitationIn,Events,Conditions,WindDirDegrees,DateUTC
12:53 AM,45.0,33.1,63,29.94,10.0,Calm,Calm,-,N/A,,Clear,0,2012-10-08 07:53:00
1:53 AM,43.0,30.9,62,29.95,10.0,Calm,Calm,-,N/A,,Clear,0,2012-10-08 08:53:00
2:53 AM,41.0,34.0,76,29.96,10.0,Calm,Calm,-,N/A,,Clear,0,2012-10-08 09:53:00
3:53 AM,39.9,30.9,70,29.95,10.0,Calm,Calm,-,N/A,,Clear,0,2012-10-08 10:53:00
4:53 AM,41.0,33.1,73,29.96,10.0,Calm,Calm,-,N/A,,Clear,0,2012-10-08 11:53:00
5:53 AM,37.0,30.0,76,29.98,10.0,Calm,Calm,-,N/A,,Clear,0,2012-10-08 12:53:00
6:53 AM,37.9,30.9,76,29.99,10.0,Calm,Calm,-,N/A,,Clear,0,2012-10-08 13:53:00
7:53 AM,36.0,28.9,76,30.01,10.0,Calm,Calm,-,N/A,,Clear,0,2012-10-08 14:53:00
8:53 AM,44.1,35.1,71,30.02,10.0,Calm,Calm,-,N/A,,Clear,0,2012-10-08 15:53:00
9:53 AM,50.0,36.0,59,30.02,10.0,Calm,Calm,-,N/A,,Clear,0,2012-10-08 16:53:00
10:53 AM,55.9,39.0,53,30.01,10.0,Calm,Calm,-,N/A,,Clear,0,2012-10-08 17:53:00
11:53 AM,59.0,37.9,46,30.01,10.0,Calm,Calm,-,N/A,,Clear,0,2012-10-08 18:53:00
12:53 PM,63.0,37.9,40,30.01,10.0,Calm,Calm,-,N/A,,Clear,0,2012-10-08 19:53:00
1:53 PM,66.0,37.0,34,29.99,10.0,West,3.5,-,N/A,,Clear,280,2012-10-08 20:53:00
2:53 PM,70.0,39.0,32,29.98,10.0,Variable,3.5,-,N/A,,Clear,0,2012-10-08 21:53:00
3:53 PM,70.0,37.9,31,29.97,10.0,SW,4.6,-,N/A,,Clear,220,2012-10-08 22:53:00
4:53 PM,71.1,37.0,29,29.96,10.0,WSW,8.1,-,N/A,,Clear,240,2012-10-08 23:53:00
5:53 PM,64.9,46.9,52,29.97,10.0,SW,6.9,-,N/A,,Clear,220,2012-10-09 00:53:00
7:53 PM,55.9,45.0,67,29.99,10.0,SW,12.7,-,N/A,,Clear,220,2012-10-09 02:53:00
8:53 PM,54.0,45.0,72,30.01,10.0,SW,11.5,-,N/A,,Clear,220,2012-10-09 03:53:00
9:53 PM,52.0,45.0,77,30.03,10.0,SW,8.1,-,N/A,,Clear,230,2012-10-09 04:53:00
10:53 PM,51.1,44.1,77,30.04,10.0,SSW,6.9,-,N/A,,Clear,200,2012-10-09 05:53:00
11:53 PM,48.0,43.0,83,30.06,10.0,South,3.5,-,N/A,,Clear,170,2012-10-09 06:53:00